Year,Month,Day,Hour,Minute,Value (Times are PST for temperature in C)
2014,09,22,00,00,15.10
2014,09,22,00,01,15.10
2014,09,22,00,02,15.10
2014,09,22,00,03,15.10
2014,09,22,00,04,15.10
2014,09,22,00,05,15.10
2014,09,22,00,06,15.10
2014,09,22,00,07,15.10
2014,09,22,00,08,15.00
2014,09,22,00,09,15.00
2014,09,22,00,10,15.00
2014,09,22,00,11,15.00
2014,09,22,00,12,15.00
2014,09,22,00,13,15.00
2014,09,22,00,14,15.00
2014,09,22,00,15,15.00
2014,09,22,00,16,15.00
2014,09,22,00,17,15.00
2014,09,22,00,18,15.00
2014,09,22,00,19,15.00
2014,09,22,00,20,15.00
2014,09,22,00,21,15.00
2014,09,22,00,22,15.00
2014,09,22,00,23,15.00
2014,09,22,00,24,15.00
2014,09,22,00,25,15.00
2014,09,22,00,26,15.00
2014,09,22,00,27,15.00
2014,09,22,00,28,15.00
2014,09,22,00,29,15.00
2014,09,22,00,30,15.00
2014,09,22,00,31,15.00
2014,09,22,00,32,15.00
2014,09,22,00,33,15.00
2014,09,22,00,34,15.00
2014,09,22,00,35,15.00
2014,09,22,00,36,15.00
2014,09,22,00,37,15.00
2014,09,22,00,38,14.90
2014,09,22,00,39,14.90
2014,09,22,00,40,14.90
2014,09,22,00,41,14.90
2014,09,22,00,42,14.80
2014,09,22,00,43,14.80
2014,09,22,00,44,14.80
2014,09,22,00,45,14.80
2014,09,22,00,46,14.80
2014,09,22,00,47,14.70
2014,09,22,00,48,14.70
2014,09,22,00,49,14.70
2014,09,22,00,50,14.70
2014,09,22,00,51,14.70
2014,09,22,00,52,14.70
2014,09,22,00,53,14.60
2014,09,22,00,54,14.60
2014,09,22,00,55,14.60
2014,09,22,00,56,14.60
2014,09,22,00,57,14.60
2014,09,22,00,58,14.60
2014,09,22,00,59,14.60
2014,09,22,01,00,14.50
2014,09,22,01,01,14.50
2014,09,22,01,02,14.40
2014,09,22,01,03,14.40
2014,09,22,01,04,14.40
2014,09,22,01,05,14.40
2014,09,22,01,06,14.30
2014,09,22,01,07,14.30
2014,09,22,01,08,14.30
2014,09,22,01,09,14.30
2014,09,22,01,10,14.30
2014,09,22,01,11,14.20
2014,09,22,01,12,14.20
2014,09,22,01,13,14.20
2014,09,22,01,14,14.20
2014,09,22,01,15,14.20
2014,09,22,01,16,14.20
2014,09,22,01,17,14.20
2014,09,22,01,18,14.20
2014,09,22,01,19,14.20
2014,09,22,01,20,14.10
2014,09,22,01,21,14.10
2014,09,22,01,22,14.10
2014,09,22,01,23,14.10
2014,09,22,01,24,14.10
2014,09,22,01,25,14.00
2014,09,22,01,26,14.00
2014,09,22,01,27,14.00
2014,09,22,01,28,13.90
2014,09,22,01,29,13.90
2014,09,22,01,30,13.90
2014,09,22,01,31,13.90
2014,09,22,01,32,13.80
2014,09,22,01,33,13.80
2014,09,22,01,34,13.80
2014,09,22,01,35,13.80
2014,09,22,01,36,13.80
2014,09,22,01,37,13.80
2014,09,22,01,38,13.80
2014,09,22,01,39,13.80
2014,09,22,01,40,13.80
2014,09,22,01,41,13.70
2014,09,22,01,42,13.70
2014,09,22,01,43,13.70
2014,09,22,01,44,13.70
2014,09,22,01,45,13.70
2014,09,22,01,46,13.70
2014,09,22,01,47,13.70
2014,09,22,01,48,13.60
2014,09,22,01,49,13.60
2014,09,22,01,50,13.60
2014,09,22,01,51,13.60
2014,09,22,01,52,13.60
2014,09,22,01,53,13.60
2014,09,22,01,54,13.60
2014,09,22,01,55,13.60
2014,09,22,01,56,13.50
2014,09,22,01,57,13.50
2014,09,22,01,58,13.50
2014,09,22,01,59,13.50
2014,09,22,02,00,13.40
2014,09,22,02,01,13.40
2014,09,22,02,02,13.40
2014,09,22,02,03,13.40
2014,09,22,02,04,13.40
2014,09,22,02,05,13.40
2014,09,22,02,06,13.40
2014,09,22,02,07,13.40
2014,09,22,02,08,13.40
2014,09,22,02,09,13.40
2014,09,22,02,10,13.40
2014,09,22,02,11,13.40
2014,09,22,02,12,13.40
2014,09,22,02,13,13.40
2014,09,22,02,14,13.40
2014,09,22,02,15,13.40
2014,09,22,02,16,13.40
2014,09,22,02,17,13.40
2014,09,22,02,18,13.40
2014,09,22,02,19,13.40
2014,09,22,02,20,13.40
2014,09,22,02,21,13.30
2014,09,22,02,22,13.30
2014,09,22,02,23,13.30
2014,09,22,02,24,13.30
2014,09,22,02,25,13.30
2014,09,22,02,26,13.30
2014,09,22,02,27,13.30
2014,09,22,02,28,13.30
2014,09,22,02,29,13.30
2014,09,22,02,30,13.30
2014,09,22,02,31,13.30
2014,09,22,02,32,13.30
2014,09,22,02,33,13.30
2014,09,22,02,34,13.20
2014,09,22,02,35,13.20
2014,09,22,02,36,13.20
2014,09,22,02,37,13.20
2014,09,22,02,38,13.20
2014,09,22,02,39,13.20
2014,09,22,02,40,13.20
2014,09,22,02,41,13.20
2014,09,22,02,42,13.20
2014,09,22,02,43,13.20
2014,09,22,02,44,13.20
2014,09,22,02,45,13.20
2014,09,22,02,46,13.20
2014,09,22,02,47,13.20
2014,09,22,02,48,13.20
2014,09,22,02,49,13.20
2014,09,22,02,50,13.20
2014,09,22,02,51,13.10
2014,09,22,02,52,13.10
2014,09,22,02,53,13.10
2014,09,22,02,54,13.10
2014,09,22,02,55,13.10
2014,09,22,02,56,13.10
2014,09,22,02,57,13.10
2014,09,22,02,58,13.10
2014,09,22,02,59,13.10
2014,09,22,03,00,13.10
2014,09,22,03,01,13.10
2014,09,22,03,02,13.10
2014,09,22,03,03,13.00
2014,09,22,03,04,13.00
2014,09,22,03,05,13.00
2014,09,22,03,06,13.00
2014,09,22,03,07,13.00
2014,09,22,03,08,13.00
2014,09,22,03,09,13.00
2014,09,22,03,10,12.90
2014,09,22,03,11,12.90
2014,09,22,03,12,12.90
2014,09,22,03,13,12.90
2014,09,22,03,14,12.90
2014,09,22,03,15,12.90
2014,09,22,03,16,12.90
2014,09,22,03,17,12.90
2014,09,22,03,18,12.90
2014,09,22,03,19,12.90
2014,09,22,03,20,12.90
2014,09,22,03,21,12.90
2014,09,22,03,22,12.90
2014,09,22,03,23,12.90
2014,09,22,03,24,12.90
2014,09,22,03,25,12.90
2014,09,22,03,26,12.90
2014,09,22,03,27,12.90
2014,09,22,03,28,12.90
2014,09,22,03,29,12.90
2014,09,22,03,30,12.90
2014,09,22,03,31,12.90
2014,09,22,03,32,12.90
2014,09,22,03,33,12.90
2014,09,22,03,34,12.80
2014,09,22,03,35,12.80
2014,09,22,03,36,12.80
2014,09,22,03,37,12.80
2014,09,22,03,38,12.80
2014,09,22,03,39,12.80
2014,09,22,03,40,12.80
2014,09,22,03,41,12.80
2014,09,22,03,42,12.80
2014,09,22,03,43,12.80
2014,09,22,03,44,12.80
2014,09,22,03,45,12.80
2014,09,22,03,46,12.80
2014,09,22,03,47,12.80
2014,09,22,03,48,12.80
2014,09,22,03,49,12.80
2014,09,22,03,50,12.80
2014,09,22,03,51,12.80
2014,09,22,03,52,12.80
2014,09,22,03,53,12.80
2014,09,22,03,54,12.80
2014,09,22,03,55,12.80
2014,09,22,03,56,12.80
2014,09,22,03,57,12.80
2014,09,22,03,58,12.80
2014,09,22,03,59,12.80
2014,09,22,04,00,12.80
2014,09,22,04,01,12.80
2014,09,22,04,02,12.80
2014,09,22,04,03,12.80
2014,09,22,04,04,12.80
2014,09,22,04,05,12.80
2014,09,22,04,06,12.80
2014,09,22,04,07,12.80
2014,09,22,04,08,12.80
2014,09,22,04,09,12.80
2014,09,22,04,10,12.80
2014,09,22,04,11,12.80
2014,09,22,04,12,12.80
2014,09,22,04,13,12.80
2014,09,22,04,14,12.80
2014,09,22,04,15,12.80
2014,09,22,04,16,12.80
2014,09,22,04,17,12.80
2014,09,22,04,18,12.80
2014,09,22,04,19,12.80
2014,09,22,04,20,12.80
2014,09,22,04,21,12.80
2014,09,22,04,22,12.80
2014,09,22,04,23,12.80
2014,09,22,04,24,12.80
2014,09,22,04,25,12.80
2014,09,22,04,26,12.80
2014,09,22,04,27,12.80
2014,09,22,04,28,12.80
2014,09,22,04,29,12.80
2014,09,22,04,30,12.80
2014,09,22,04,31,12.80
2014,09,22,04,32,12.80
2014,09,22,04,33,12.90
2014,09,22,04,34,12.90
2014,09,22,04,35,12.90
2014,09,22,04,36,12.80
2014,09,22,04,37,12.80
2014,09,22,04,38,12.80
2014,09,22,04,39,12.80
2014,09,22,04,40,12.80
2014,09,22,04,41,12.90
2014,09,22,04,42,12.90
2014,09,22,04,43,12.90
2014,09,22,04,44,12.90
2014,09,22,04,45,12.90
2014,09,22,04,46,12.90
2014,09,22,04,47,12.90
2014,09,22,04,48,13.00
2014,09,22,04,49,12.90
2014,09,22,04,50,12.90
2014,09,22,04,51,12.90
2014,09,22,04,52,12.90
2014,09,22,04,53,12.90
2014,09,22,04,54,12.90
2014,09,22,04,55,12.90
2014,09,22,04,56,12.90
2014,09,22,04,57,12.80
2014,09,22,04,58,12.80
2014,09,22,04,59,12.80
2014,09,22,05,00,12.80
2014,09,22,05,01,12.80
2014,09,22,05,02,12.80
2014,09,22,05,03,12.70
2014,09,22,05,04,12.70
2014,09,22,05,05,12.70
2014,09,22,05,06,12.70
2014,09,22,05,07,12.70
2014,09,22,05,08,12.70
2014,09,22,05,09,12.70
2014,09,22,05,10,12.70
2014,09,22,05,11,12.60
2014,09,22,05,12,12.60
2014,09,22,05,13,12.60
2014,09,22,05,14,12.60
2014,09,22,05,15,12.60
2014,09,22,05,16,12.60
2014,09,22,05,17,12.60
2014,09,22,05,18,12.60
2014,09,22,05,19,12.70
2014,09,22,05,20,12.70
2014,09,22,05,21,12.70
2014,09,22,05,22,12.70
2014,09,22,05,23,12.70
2014,09,22,05,24,12.60
2014,09,22,05,25,12.60
2014,09,22,05,26,12.60
2014,09,22,05,27,12.60
2014,09,22,05,28,12.60
2014,09,22,05,29,12.60
2014,09,22,05,30,12.60
2014,09,22,05,31,12.60
2014,09,22,05,32,12.50
2014,09,22,05,33,12.50
2014,09,22,05,34,12.50
2014,09,22,05,35,12.50
2014,09,22,05,36,12.40
2014,09,22,05,37,12.50
2014,09,22,05,38,12.50
2014,09,22,05,39,12.50
2014,09,22,05,40,12.50
2014,09,22,05,41,12.50
2014,09,22,05,42,12.50
2014,09,22,05,43,12.50
2014,09,22,05,44,12.50
2014,09,22,05,45,12.50
2014,09,22,05,46,12.50
2014,09,22,05,47,12.50
2014,09,22,05,48,12.40
2014,09,22,05,49,12.40
2014,09,22,05,50,12.40
2014,09,22,05,51,12.40
2014,09,22,05,52,12.40
2014,09,22,05,53,12.40
2014,09,22,05,54,12.40
2014,09,22,05,55,12.50
2014,09,22,05,56,12.50
2014,09,22,05,57,12.50
2014,09,22,05,58,12.50
2014,09,22,05,59,12.50
2014,09,22,06,00,12.50
2014,09,22,06,01,12.40
2014,09,22,06,02,12.40
2014,09,22,06,03,12.40
2014,09,22,06,04,12.40
2014,09,22,06,05,12.40
2014,09,22,06,06,12.40
2014,09,22,06,07,12.40
2014,09,22,06,08,12.40
2014,09,22,06,09,12.40
2014,09,22,06,10,12.40
2014,09,22,06,11,12.40
2014,09,22,06,12,12.40
2014,09,22,06,13,12.40
2014,09,22,06,14,12.40
2014,09,22,06,15,12.40
2014,09,22,06,16,12.40
2014,09,22,06,17,12.40
2014,09,22,06,18,12.40
2014,09,22,06,19,12.40
2014,09,22,06,20,12.50
2014,09,22,06,21,12.50
2014,09,22,06,22,12.60
2014,09,22,06,23,12.60
2014,09,22,06,24,12.60
2014,09,22,06,25,12.60
2014,09,22,06,26,12.70
2014,09,22,06,27,12.70
2014,09,22,06,28,12.70
2014,09,22,06,29,12.70
2014,09,22,06,30,12.70
2014,09,22,06,31,12.70
2014,09,22,06,32,12.70
2014,09,22,06,33,12.70
2014,09,22,06,34,12.70
2014,09,22,06,35,12.70
2014,09,22,06,36,12.70
2014,09,22,06,37,12.70
2014,09,22,06,38,12.70
2014,09,22,06,39,12.70
2014,09,22,06,40,12.70
2014,09,22,06,41,12.70
2014,09,22,06,42,12.70
2014,09,22,06,43,12.70
2014,09,22,06,44,12.80
2014,09,22,06,45,12.70
2014,09,22,06,46,12.70
2014,09,22,06,47,12.70
2014,09,22,06,48,12.70
2014,09,22,06,49,12.70
2014,09,22,06,50,12.70
2014,09,22,06,51,12.70
2014,09,22,06,52,12.70
2014,09,22,06,53,12.70
2014,09,22,06,54,12.70
2014,09,22,06,55,12.70
2014,09,22,06,56,12.70
2014,09,22,06,57,12.80
2014,09,22,06,58,12.80
2014,09,22,06,59,12.80
2014,09,22,07,00,12.80
2014,09,22,07,01,12.80
2014,09,22,07,02,12.80
2014,09,22,07,03,12.80
2014,09,22,07,04,12.80
2014,09,22,07,05,12.80
2014,09,22,07,06,12.80
2014,09,22,07,07,12.80
2014,09,22,07,08,12.90
2014,09,22,07,09,12.90
2014,09,22,07,10,12.90
2014,09,22,07,11,12.90
2014,09,22,07,12,12.90
2014,09,22,07,13,12.90
2014,09,22,07,14,12.90
2014,09,22,07,15,12.90
2014,09,22,07,16,12.90
2014,09,22,07,17,12.90
2014,09,22,07,18,12.90
2014,09,22,07,19,12.80
2014,09,22,07,20,12.80
2014,09,22,07,21,12.80
2014,09,22,07,22,12.80
2014,09,22,07,23,12.70
2014,09,22,07,24,12.70
2014,09,22,07,25,12.70
2014,09,22,07,26,12.70
2014,09,22,07,27,12.70
2014,09,22,07,28,12.70
2014,09,22,07,29,12.70
2014,09,22,07,30,12.70
2014,09,22,07,31,12.70
2014,09,22,07,32,12.70
2014,09,22,07,33,12.70
2014,09,22,07,34,12.80
2014,09,22,07,35,12.80
2014,09,22,07,36,12.80
2014,09,22,07,37,12.80
2014,09,22,07,38,12.80
2014,09,22,07,39,12.80
2014,09,22,07,40,12.80
2014,09,22,07,41,12.80
2014,09,22,07,42,12.80
2014,09,22,07,43,12.90
2014,09,22,07,44,12.90
2014,09,22,07,45,12.90
2014,09,22,07,46,12.90
2014,09,22,07,47,13.00
2014,09,22,07,48,13.00
2014,09,22,07,49,13.00
2014,09,22,07,50,13.00
2014,09,22,07,51,13.10
2014,09,22,07,52,13.10
2014,09,22,07,53,13.10
2014,09,22,07,54,13.10
2014,09,22,07,55,13.10
2014,09,22,07,56,13.10
2014,09,22,07,57,13.10
2014,09,22,07,58,13.10
2014,09,22,07,59,13.20
2014,09,22,08,00,13.20
2014,09,22,08,01,13.20
2014,09,22,08,02,13.20
2014,09,22,08,03,13.30
2014,09,22,08,04,13.30
2014,09,22,08,05,13.30
2014,09,22,08,06,13.30
2014,09,22,08,07,13.30
2014,09,22,08,08,13.30
2014,09,22,08,09,13.40
2014,09,22,08,10,13.40
2014,09,22,08,11,13.40
2014,09,22,08,12,13.40
2014,09,22,08,13,13.40
2014,09,22,08,14,13.40
2014,09,22,08,15,13.40
2014,09,22,08,16,13.40
2014,09,22,08,17,13.40
2014,09,22,08,18,13.40
2014,09,22,08,19,13.40
2014,09,22,08,20,13.50
2014,09,22,08,21,13.50
2014,09,22,08,22,13.50
2014,09,22,08,23,13.50
2014,09,22,08,24,13.60
2014,09,22,08,25,13.60
2014,09,22,08,26,13.60
2014,09,22,08,27,13.60
2014,09,22,08,28,13.70
2014,09,22,08,29,13.70
2014,09,22,08,30,13.70
2014,09,22,08,31,13.80
2014,09,22,08,32,13.80
2014,09,22,08,33,13.90
2014,09,22,08,34,13.90
2014,09,22,08,35,14.00
2014,09,22,08,36,14.00
2014,09,22,08,37,14.10
2014,09,22,08,38,14.10
2014,09,22,08,39,14.10
2014,09,22,08,40,14.10
2014,09,22,08,41,14.20
2014,09,22,08,42,14.20
2014,09,22,08,43,14.20
2014,09,22,08,44,14.30
2014,09,22,08,45,14.30
2014,09,22,08,46,14.30
2014,09,22,08,47,14.30
2014,09,22,08,48,14.30
2014,09,22,08,49,14.30
2014,09,22,08,50,14.30
2014,09,22,08,51,14.30
2014,09,22,08,52,14.30
2014,09,22,08,53,14.30
2014,09,22,08,54,14.30
2014,09,22,08,55,14.30
2014,09,22,08,56,14.30
2014,09,22,08,57,14.30
2014,09,22,08,58,14.30
2014,09,22,08,59,14.30
2014,09,22,09,00,14.30
2014,09,22,09,01,14.30
2014,09,22,09,02,14.30
2014,09,22,09,03,14.30
2014,09,22,09,04,14.30
2014,09,22,09,05,14.40
2014,09,22,09,06,14.40
2014,09,22,09,07,14.40
2014,09,22,09,08,14.50
2014,09,22,09,09,14.50
2014,09,22,09,10,14.60
2014,09,22,09,11,14.70
2014,09,22,09,12,14.70
2014,09,22,09,13,14.80
2014,09,22,09,14,15.00
2014,09,22,09,15,15.00
2014,09,22,09,16,15.00
2014,09,22,09,17,15.10
2014,09,22,09,18,15.20
2014,09,22,09,19,15.30
2014,09,22,09,20,15.40
2014,09,22,09,21,15.50
2014,09,22,09,22,15.60
2014,09,22,09,23,15.70
2014,09,22,09,24,15.70
2014,09,22,09,25,15.80
2014,09,22,09,26,15.90
2014,09,22,09,27,16.00
2014,09,22,09,28,16.10
2014,09,22,09,29,16.20
2014,09,22,09,30,16.40
2014,09,22,09,31,16.50
2014,09,22,09,32,16.70
2014,09,22,09,33,16.80
2014,09,22,09,34,16.90
2014,09,22,09,35,17.00
2014,09,22,09,36,17.20
2014,09,22,09,37,17.30
2014,09,22,09,38,17.50
2014,09,22,09,39,17.70
2014,09,22,09,40,17.80
2014,09,22,09,41,17.90
2014,09,22,09,42,18.00
2014,09,22,09,43,18.10
2014,09,22,09,44,18.20
2014,09,22,09,45,18.30
2014,09,22,09,46,18.30
2014,09,22,09,47,18.40
2014,09,22,09,48,18.50
2014,09,22,09,49,18.50
2014,09,22,09,50,18.60
2014,09,22,09,51,18.60
2014,09,22,09,52,18.70
2014,09,22,09,53,18.80
2014,09,22,09,54,18.80
2014,09,22,09,55,18.90
2014,09,22,09,56,18.90
2014,09,22,09,57,19.00
2014,09,22,09,58,19.00
2014,09,22,09,59,19.00
2014,09,22,10,00,19.10
2014,09,22,10,01,19.10
2014,09,22,10,02,19.10
2014,09,22,10,03,19.10
2014,09,22,10,04,19.00
2014,09,22,10,05,18.90
2014,09,22,10,06,18.80
2014,09,22,10,07,18.70
2014,09,22,10,08,18.60
2014,09,22,10,09,18.40
2014,09,22,10,10,18.30
2014,09,22,10,11,18.20
2014,09,22,10,12,18.10
2014,09,22,10,13,18.00
2014,09,22,10,14,17.90
2014,09,22,10,15,17.80
2014,09,22,10,16,17.70
2014,09,22,10,17,17.50
2014,09,22,10,18,17.40
2014,09,22,10,19,17.30
2014,09,22,10,20,17.30
2014,09,22,10,21,17.20
2014,09,22,10,22,17.20
2014,09,22,10,23,17.10
2014,09,22,10,24,17.10
2014,09,22,10,25,17.10
2014,09,22,10,26,17.10
2014,09,22,10,27,17.10
2014,09,22,10,28,17.20
2014,09,22,10,29,17.20
2014,09,22,10,30,17.20
2014,09,22,10,31,17.20
2014,09,22,10,32,17.20
2014,09,22,10,33,17.30
2014,09,22,10,34,17.30
2014,09,22,10,35,17.30
2014,09,22,10,36,17.40
2014,09,22,10,37,17.40
2014,09,22,10,38,17.40
2014,09,22,10,39,17.40
2014,09,22,10,40,17.40
2014,09,22,10,41,17.40
2014,09,22,10,42,17.40
2014,09,22,10,43,17.40
2014,09,22,10,44,17.40
2014,09,22,10,45,17.50
2014,09,22,10,46,17.50
2014,09,22,10,47,17.60
2014,09,22,10,48,17.60
2014,09,22,10,49,17.60
2014,09,22,10,50,17.60
2014,09,22,10,51,17.60
2014,09,22,10,52,17.60
2014,09,22,10,53,17.60
2014,09,22,10,54,17.60
2014,09,22,10,55,17.60
2014,09,22,10,56,17.60
2014,09,22,10,57,17.50
2014,09,22,10,58,17.50
2014,09,22,10,59,17.60
2014,09,22,11,00,17.60
2014,09,22,11,01,17.60
2014,09,22,11,02,17.60
2014,09,22,11,03,17.70
2014,09,22,11,04,17.70
2014,09,22,11,05,17.70
2014,09,22,11,06,17.80
2014,09,22,11,07,17.80
2014,09,22,11,08,17.80
2014,09,22,11,09,17.90
2014,09,22,11,10,18.00
2014,09,22,11,11,18.00
2014,09,22,11,12,18.10
2014,09,22,11,13,18.10
2014,09,22,11,14,18.10
2014,09,22,11,15,18.20
2014,09,22,11,16,18.20
2014,09,22,11,17,18.20
2014,09,22,11,18,18.20
2014,09,22,11,19,18.20
2014,09,22,11,20,18.10
2014,09,22,11,21,18.10
2014,09,22,11,22,18.10
2014,09,22,11,23,18.10
2014,09,22,11,24,18.10
2014,09,22,11,25,18.10
2014,09,22,11,26,18.10
2014,09,22,11,27,18.10
2014,09,22,11,28,18.10
2014,09,22,11,29,18.20
2014,09,22,11,30,18.20
2014,09,22,11,31,18.20
2014,09,22,11,32,18.30
2014,09,22,11,33,18.30
2014,09,22,11,34,18.30
2014,09,22,11,35,18.30
2014,09,22,11,36,18.30
2014,09,22,11,37,18.20
2014,09,22,11,38,18.20
2014,09,22,11,39,18.20
2014,09,22,11,40,18.20
2014,09,22,11,41,18.20
2014,09,22,11,42,18.20
2014,09,22,11,43,18.20
2014,09,22,11,44,18.20
2014,09,22,11,45,18.20
2014,09,22,11,46,18.20
2014,09,22,11,47,18.20
2014,09,22,11,48,18.30
2014,09,22,11,49,18.20
2014,09,22,11,50,18.30
2014,09,22,11,51,18.30
2014,09,22,11,52,18.30
2014,09,22,11,53,18.30
2014,09,22,11,54,18.30
2014,09,22,11,55,18.30
2014,09,22,11,56,18.30
2014,09,22,11,57,18.30
2014,09,22,11,58,18.30
2014,09,22,11,59,18.30
2014,09,22,12,00,18.40
2014,09,22,12,01,18.40
2014,09,22,12,02,18.40
2014,09,22,12,03,18.40
2014,09,22,12,04,18.50
2014,09,22,12,05,18.60
2014,09,22,12,06,18.60
2014,09,22,12,07,18.60
2014,09,22,12,08,18.60
2014,09,22,12,09,18.70
2014,09,22,12,10,18.70
2014,09,22,12,11,18.80
2014,09,22,12,12,18.90
2014,09,22,12,13,18.90
2014,09,22,12,14,19.00
2014,09,22,12,15,19.10
2014,09,22,12,16,19.10
2014,09,22,12,17,19.10
2014,09,22,12,18,19.20
2014,09,22,12,19,19.30
2014,09,22,12,20,19.40
2014,09,22,12,21,19.40
2014,09,22,12,22,19.40
2014,09,22,12,23,19.40
2014,09,22,12,24,19.40
2014,09,22,12,25,19.40
2014,09,22,12,26,19.40
2014,09,22,12,27,19.40
2014,09,22,12,28,19.40
2014,09,22,12,29,19.50
2014,09,22,12,30,19.50
2014,09,22,12,31,19.50
2014,09,22,12,32,19.50
2014,09,22,12,33,19.40
2014,09,22,12,34,19.40
2014,09,22,12,35,19.40
2014,09,22,12,36,19.40
2014,09,22,12,37,19.40
2014,09,22,12,38,19.40
2014,09,22,12,39,19.40
2014,09,22,12,40,19.50
2014,09,22,12,41,19.50
2014,09,22,12,42,19.60
2014,09,22,12,43,19.50
2014,09,22,12,44,19.40
2014,09,22,12,45,19.30
2014,09,22,12,46,19.30
2014,09,22,12,47,19.40
2014,09,22,12,48,19.40
2014,09,22,12,49,19.40
2014,09,22,12,50,19.40
2014,09,22,12,51,19.40
2014,09,22,12,52,19.40
2014,09,22,12,53,19.30
2014,09,22,12,54,19.40
2014,09,22,12,55,19.40
2014,09,22,12,56,19.30
2014,09,22,12,57,19.20
2014,09,22,12,58,19.20
2014,09,22,12,59,19.20
2014,09,22,13,00,19.10
2014,09,22,13,01,19.10
2014,09,22,13,02,19.10
2014,09,22,13,03,19.10
2014,09,22,13,04,19.20
2014,09,22,13,05,19.10
2014,09,22,13,06,19.10
2014,09,22,13,07,19.10
2014,09,22,13,08,19.20
2014,09,22,13,09,19.30
2014,09,22,13,10,19.30
2014,09,22,13,11,19.40
2014,09,22,13,12,19.50
2014,09,22,13,13,19.60
2014,09,22,13,14,19.70
2014,09,22,13,15,19.70
2014,09,22,13,16,19.70
2014,09,22,13,17,19.80
2014,09,22,13,18,19.80
2014,09,22,13,19,19.80
2014,09,22,13,20,19.80
2014,09,22,13,21,19.90
2014,09,22,13,22,19.80
2014,09,22,13,23,19.80
2014,09,22,13,24,19.80
2014,09,22,13,25,19.80
2014,09,22,13,26,19.80
2014,09,22,13,27,19.80
2014,09,22,13,28,19.80
2014,09,22,13,29,19.70
2014,09,22,13,30,19.70
2014,09,22,13,31,19.70
2014,09,22,13,32,19.70
2014,09,22,13,33,19.70
2014,09,22,13,34,19.70
2014,09,22,13,35,19.70
2014,09,22,13,36,19.80
2014,09,22,13,37,19.80
2014,09,22,13,38,19.80
2014,09,22,13,39,19.80
2014,09,22,13,40,19.90
2014,09,22,13,41,19.80
2014,09,22,13,42,19.70
2014,09,22,13,43,19.70
2014,09,22,13,44,19.70
2014,09,22,13,45,19.70
2014,09,22,13,46,19.70
2014,09,22,13,47,19.70
2014,09,22,13,48,19.70
2014,09,22,13,49,19.70
2014,09,22,13,50,19.80
2014,09,22,13,51,19.80
2014,09,22,13,52,19.80
2014,09,22,13,53,19.80
2014,09,22,13,54,19.70
2014,09,22,13,55,19.60
2014,09,22,13,56,19.60
2014,09,22,13,57,19.50
2014,09,22,13,58,19.40
2014,09,22,13,59,19.40
2014,09,22,14,00,19.40
2014,09,22,14,01,19.50
2014,09,22,14,02,19.50
2014,09,22,14,03,19.60
2014,09,22,14,04,19.60
2014,09,22,14,05,19.70
2014,09,22,14,06,19.70
2014,09,22,14,07,19.70
2014,09,22,14,08,19.60
2014,09,22,14,09,19.50
2014,09,22,14,10,19.50
2014,09,22,14,11,19.50
2014,09,22,14,12,19.60
2014,09,22,14,13,19.60
2014,09,22,14,14,19.70
2014,09,22,14,15,19.70
2014,09,22,14,16,19.70
2014,09,22,14,17,19.70
2014,09,22,14,18,19.70
2014,09,22,14,19,19.70
2014,09,22,14,20,19.70
2014,09,22,14,21,19.70
2014,09,22,14,22,19.80
2014,09,22,14,23,19.80
2014,09,22,14,24,19.80
2014,09,22,14,25,19.80
2014,09,22,14,26,19.80
2014,09,22,14,27,19.80
2014,09,22,14,28,19.90
2014,09,22,14,29,19.90
2014,09,22,14,30,20.00
2014,09,22,14,31,20.00
2014,09,22,14,32,19.90
2014,09,22,14,33,19.90
2014,09,22,14,34,19.90
2014,09,22,14,35,19.90
2014,09,22,14,36,19.90
2014,09,22,14,37,19.90
2014,09,22,14,38,19.90
2014,09,22,14,39,19.80
2014,09,22,14,40,19.80
2014,09,22,14,41,19.80
2014,09,22,14,42,19.80
2014,09,22,14,43,19.80
2014,09,22,14,44,19.80
2014,09,22,14,45,19.80
2014,09,22,14,46,19.80
2014,09,22,14,47,19.70
2014,09,22,14,48,19.60
2014,09,22,14,49,19.60
2014,09,22,14,50,19.60
2014,09,22,14,51,19.60
2014,09,22,14,52,19.60
2014,09,22,14,53,19.70
2014,09,22,14,54,19.60
2014,09,22,14,55,19.60
2014,09,22,14,56,19.50
2014,09,22,14,57,19.50
2014,09,22,14,58,19.40
2014,09,22,14,59,19.40
2014,09,22,15,00,19.40
2014,09,22,15,01,19.30
2014,09,22,15,02,19.30
2014,09,22,15,03,19.30
2014,09,22,15,04,19.30
2014,09,22,15,05,19.20
2014,09,22,15,06,19.20
2014,09,22,15,07,19.20
2014,09,22,15,08,19.10
2014,09,22,15,09,19.10
2014,09,22,15,10,19.00
2014,09,22,15,11,18.90
2014,09,22,15,12,18.80
2014,09,22,15,13,18.70
2014,09,22,15,14,18.60
2014,09,22,15,15,18.50
2014,09,22,15,16,18.40
2014,09,22,15,17,18.20
2014,09,22,15,18,18.10
2014,09,22,15,19,18.00
2014,09,22,15,20,17.90
2014,09,22,15,21,17.80
2014,09,22,15,22,17.80
2014,09,22,15,23,17.80
2014,09,22,15,24,17.80
2014,09,22,15,25,17.80
2014,09,22,15,26,17.80
2014,09,22,15,27,17.80
2014,09,22,15,28,17.80
2014,09,22,15,29,17.80
2014,09,22,15,30,17.80
2014,09,22,15,31,17.80
2014,09,22,15,32,17.80
2014,09,22,15,33,17.80
2014,09,22,15,34,17.80
2014,09,22,15,35,17.80
2014,09,22,15,36,17.80
2014,09,22,15,37,17.80
2014,09,22,15,38,17.80
2014,09,22,15,39,17.90
2014,09,22,15,40,17.90
2014,09,22,15,41,17.90
2014,09,22,15,42,18.00
2014,09,22,15,43,18.10
2014,09,22,15,44,18.10
2014,09,22,15,45,18.10
2014,09,22,15,46,18.20
2014,09,22,15,47,18.20
2014,09,22,15,48,18.20
2014,09,22,15,49,18.20
2014,09,22,15,50,18.20
2014,09,22,15,51,18.30
2014,09,22,15,52,18.30
2014,09,22,15,53,18.30
2014,09,22,15,54,18.30
2014,09,22,15,55,18.30
2014,09,22,15,56,18.30
2014,09,22,15,57,18.30
2014,09,22,15,58,18.30
2014,09,22,15,59,18.30
2014,09,22,16,00,18.30
2014,09,22,16,01,18.30
2014,09,22,16,02,18.30
2014,09,22,16,03,18.30
2014,09,22,16,04,18.30
2014,09,22,16,05,18.40
2014,09,22,16,06,18.40
2014,09,22,16,07,18.40
2014,09,22,16,08,18.50
2014,09,22,16,09,18.50
2014,09,22,16,10,18.60
2014,09,22,16,11,18.70
2014,09,22,16,12,18.70
2014,09,22,16,13,18.70
2014,09,22,16,14,18.80
2014,09,22,16,15,18.80
2014,09,22,16,16,18.90
2014,09,22,16,17,18.90
2014,09,22,16,18,18.90
2014,09,22,16,19,19.00
2014,09,22,16,20,19.00
2014,09,22,16,21,19.10
2014,09,22,16,22,19.10
2014,09,22,16,23,19.10
2014,09,22,16,24,19.20
2014,09,22,16,25,19.20
2014,09,22,16,26,19.20
2014,09,22,16,27,19.20
2014,09,22,16,28,19.30
2014,09,22,16,29,19.30
2014,09,22,16,30,19.30
2014,09,22,16,31,19.40
2014,09,22,16,32,19.40
2014,09,22,16,33,19.40
2014,09,22,16,34,19.50
2014,09,22,16,35,19.50
2014,09,22,16,36,19.50
2014,09,22,16,37,19.60
2014,09,22,16,38,19.60
2014,09,22,16,39,19.60
2014,09,22,16,40,19.60
2014,09,22,16,41,19.60
2014,09,22,16,42,19.60
2014,09,22,16,43,19.60
2014,09,22,16,44,19.60
2014,09,22,16,45,19.60
2014,09,22,16,46,19.60
2014,09,22,16,47,19.60
2014,09,22,16,48,19.60
2014,09,22,16,49,19.60
2014,09,22,16,50,19.60
2014,09,22,16,51,19.60
2014,09,22,16,52,19.50
2014,09,22,16,53,19.50
2014,09,22,16,54,19.50
2014,09,22,16,55,19.50
2014,09,22,16,56,19.50
2014,09,22,16,57,19.50
2014,09,22,16,58,19.50
2014,09,22,16,59,19.50
2014,09,22,17,00,19.60
2014,09,22,17,01,19.60
2014,09,22,17,02,19.70
2014,09,22,17,03,19.70
2014,09,22,17,04,19.80
2014,09,22,17,05,19.80
2014,09,22,17,06,19.80
2014,09,22,17,07,19.80
2014,09,22,17,08,19.80
2014,09,22,17,09,19.80
2014,09,22,17,10,19.90
2014,09,22,17,11,19.90
2014,09,22,17,12,19.90
2014,09,22,17,13,19.90
2014,09,22,17,14,19.90
2014,09,22,17,15,19.90
2014,09,22,17,16,19.90
2014,09,22,17,17,19.90
2014,09,22,17,18,19.90
2014,09,22,17,19,19.90